Location: Sungai Kamana Besar
(2.6333°N, 113.4333°E)
Time: 06:31:18
(UTC+00:00)

ATLAS 5 CENTAUR R/B - Pass Details

Date: 29 May 2022
Orbit: 293 x 12464 km, 20.2° (Epoch: 26 June)

Event Time Altitude Azimuth Distance (km) Brightness Sun altitude
Exits shadow 20:13:02 25° 188° (S) 3,069 4.2 -29.0°
Maximum altitude 20:15:38 27° 167° (SSE) 3,557 4.7 -28.4°
Drops below altitude 10° 20:37:09 10° 118° (ESE) 9,580 7.5 -23.5°
Sets 20:57:29 0° 107° (ESE) 13,921 8.7 -18.9°
